Location: Fort Wayne
(41.1310°N, 85.1290°W)
Time: 16:08:14
(UTC-04:00)

IDEFIX/ARIANE 42P - Visible Passes

Search period start: 29 August 2014 00:00
Search period end: 08 September 2014 00:00
Orbit: 786 x 804 km, 98.3° (Epoch: 29 August)

Date Brightness Start Highest point End Pass type
(mag) Time Alt. Az. Time Alt. Az. Time Alt. Az.
29 Aug 3.1 20:40:02 10° SE 20:44:50 40° ENE 20:49:40 10° N visible
29 Aug 4.6 22:20:26 10° SSW 22:24:34 24° W 22:28:44 10° NW visible
30 Aug 3.6 21:51:22 10° S 21:56:16 44° W 22:01:13 10° NNW visible
31 Aug 2.6 21:22:56 10° S 21:28:05 81° WSW 21:33:18 10° NNW visible
01 Sep 2.7 20:54:59 10° SSE 21:00:01 56° ENE 21:05:06 10° N visible
01 Sep 5.1 22:36:39 10° SW 22:39:59 17° W 22:43:21 10° NW visible
02 Sep 4.2 22:07:04 10° SSW 22:11:37 31° W 22:16:13 10° NNW visible
03 Sep 3.1 21:38:18 10° S 21:43:23 57° W 21:48:30 10° NNW visible
04 Sep 2.5 21:10:05 10° SSE 21:15:15 79° ENE 21:20:27 10° N visible
04 Sep 5.3 22:53:32 10° WSW 22:55:27 12° W 22:57:22 10° WNW visible
05 Sep 3.0 20:42:22 10° SE 20:47:14 43° ENE 20:52:08 10° N visible
05 Sep 4.7 22:23:01 10° SW 22:27:01 23° W 22:31:03 10° NW visible
06 Sep 3.7 21:53:51 10° SSW 21:58:42 41° W 22:03:36 10° NNW visible
07 Sep 2.7 21:25:20 10° S 21:30:30 75° WSW 21:35:43 10° NNW visible
